Location: ???????
(54.6339°N, 39.4245°E)
Time: 02:52:26
(UTC+00:00)

Cosmos 2058 Rocket - Pass Details

Date: 19 May 2025
Orbit: 604 x 634 km, 82.5° (Epoch: 14 June)

Event Time Altitude Azimuth Distance (km) Brightness Sun altitude
Rises 19:01:48 0° 211° (SSW) 2,920 6.2 -9.9°
Reaches altitude 10° 19:04:08 10° 218° (SW) 2,014 5.5 -10.1°
Maximum altitude 19:08:22 41° 289° (WNW) 921 4.4 -10.4°
Drops below altitude 10° 19:12:36 10° 1° (N) 2,015 6.7 -10.7°
Sets 19:14:57 0° 8° (N) 2,921 7.4 -10.9°
